Time,TemperatureF,DewpointF,PressureIn,WindDirection,WindDirectionDegrees,WindSpeedMPH,WindSpeedGustMPH,Humidity,HourlyPrecipIn,Conditions,Clouds,dailyrainin,SoftwareType,DateUTC
2013-04-07 00:02:00,53.0,36.0,29.95,West,267,22.0,30.0,53,0.00,,,0.00,,2013-04-07 07:02:00,
2013-04-07 00:11:00,53.0,36.0,29.95,West,267,22.0,30.0,53,0.00,,,0.00,,2013-04-07 07:11:00,
2013-04-07 00:21:00,53.0,37.0,29.96,West,266,16.0,24.0,54,0.00,,,0.00,,2013-04-07 07:21:00,
2013-04-07 00:32:00,53.0,37.0,29.97,West,281,14.0,26.0,55,0.00,,,0.00,,2013-04-07 07:32:00,
2013-04-07 00:42:00,53.0,37.0,29.97,West,281,14.0,26.0,55,0.00,,,0.00,,2013-04-07 07:42:00,
2013-04-07 00:52:00,53.0,38.0,29.96,WNW,294,17.0,25.0,57,0.00,,,0.00,,2013-04-07 07:52:00,
2013-04-07 01:01:00,53.0,39.0,29.96,West,261,13.0,22.0,58,0.00,,,0.00,,2013-04-07 08:01:00,
2013-04-07 01:11:00,53.0,39.0,29.96,West,261,13.0,22.0,58,0.00,,,0.00,,2013-04-07 08:11:00,
2013-04-07 01:22:00,53.0,39.0,29.97,West,266,13.0,25.0,58,0.00,,,0.00,,2013-04-07 08:22:00,
2013-04-07 01:32:00,53.0,39.0,29.96,West,281,14.0,24.0,58,0.00,,,0.00,,2013-04-07 08:32:00,
2013-04-07 01:42:00,53.0,39.0,29.96,West,281,14.0,24.0,58,0.00,,,0.00,,2013-04-07 08:42:00,
2013-04-07 01:52:00,53.0,38.0,29.97,WNW,285,13.0,22.0,57,0.00,,,0.00,,2013-04-07 08:52:00,
2013-04-07 02:01:00,53.0,39.0,29.97,WNW,282,21.0,35.0,60,0.00,,,0.00,,2013-04-07 09:01:00,
2013-04-07 02:11:00,53.0,39.0,29.97,WNW,282,21.0,35.0,60,0.00,,,0.00,,2013-04-07 09:11:00,
2013-04-07 02:22:00,52.0,41.0,29.98,West,276,22.0,33.0,65,0.00,,,0.00,,2013-04-07 09:22:00,
2013-04-07 02:33:00,52.0,41.0,29.96,WNW,296,14.0,29.0,66,0.00,,,0.00,,2013-04-07 09:33:00,
2013-04-07 02:42:00,52.0,41.0,29.96,WNW,296,14.0,29.0,66,0.00,,,0.00,,2013-04-07 09:42:00,
2013-04-07 02:53:00,52.0,41.0,29.97,WNW,289,17.0,34.0,67,0.00,,,0.00,,2013-04-07 09:53:00,
2013-04-07 03:02:00,52.0,42.0,29.96,WNW,290,20.0,33.0,68,0.00,,,0.00,,2013-04-07 10:02:00,
2013-04-07 03:12:00,52.0,42.0,29.96,WNW,290,20.0,33.0,68,0.00,,,0.00,,2013-04-07 10:12:00,
2013-04-07 03:22:00,51.0,41.0,29.96,West,269,15.0,32.0,68,0.00,,,0.00,,2013-04-07 10:22:00,
2013-04-07 03:32:00,51.0,41.0,29.93,WSW,256,18.0,29.0,69,0.00,,,0.00,,2013-04-07 10:32:00,
2013-04-07 03:42:00,51.0,41.0,29.93,WSW,256,18.0,29.0,69,0.00,,,0.00,,2013-04-07 10:42:00,
2013-04-07 03:53:00,51.0,42.0,29.93,WNW,292,19.0,29.0,70,0.00,,,0.00,,2013-04-07 10:53:00,
2013-04-07 04:02:00,50.0,41.0,29.94,WNW,294,24.0,31.0,72,0.00,,,0.00,,2013-04-07 11:02:00,
2013-04-07 04:11:00,50.0,41.0,29.94,WNW,294,24.0,31.0,72,0.00,,,0.00,,2013-04-07 11:11:00,
2013-04-07 04:22:00,50.0,41.0,29.93,NW,304,26.0,33.0,71,0.00,,,0.00,,2013-04-07 11:22:00,
2013-04-07 04:32:00,51.0,42.0,29.93,NNW,332,17.0,27.0,70,0.00,,,0.00,,2013-04-07 11:32:00,
2013-04-07 04:42:00,51.0,42.0,29.93,NNW,332,17.0,27.0,70,0.00,,,0.00,,2013-04-07 11:42:00,
2013-04-07 04:53:00,50.0,41.0,29.92,WNW,292,17.0,28.0,72,0.00,,,0.00,,2013-04-07 11:53:00,
2013-04-07 05:02:00,50.0,41.0,29.92,WNW,302,16.0,28.0,72,0.00,,,0.00,,2013-04-07 12:02:00,
2013-04-07 05:12:00,50.0,41.0,29.92,WNW,302,16.0,28.0,72,0.00,,,0.00,,2013-04-07 12:12:00,
2013-04-07 05:22:00,50.0,42.0,29.92,WNW,294,20.0,26.0,73,0.00,,,0.00,,2013-04-07 12:22:00,
2013-04-07 05:32:00,50.0,41.0,29.93,West,279,14.0,28.0,71,0.00,,,0.00,,2013-04-07 12:32:00,
2013-04-07 05:42:00,50.0,41.0,29.93,West,279,14.0,28.0,71,0.00,,,0.00,,2013-04-07 12:42:00,
2013-04-07 05:53:00,50.0,41.0,29.93,WNW,287,17.0,26.0,71,0.00,,,0.00,,2013-04-07 12:53:00,
2013-04-07 06:02:00,49.0,41.0,29.91,WNW,282,16.0,26.0,73,0.00,,,0.00,,2013-04-07 13:02:00,
2013-04-07 06:12:00,49.0,41.0,29.91,WNW,282,16.0,26.0,73,0.00,,,0.00,,2013-04-07 13:12:00,
2013-04-07 06:22:00,49.0,41.0,29.91,WNW,288,19.0,30.0,73,0.00,,,0.00,,2013-04-07 13:22:00,
2013-04-07 06:32:00,49.0,41.0,29.92,WNW,288,20.0,30.0,74,0.00,,,0.00,,2013-04-07 13:32:00,
2013-04-07 06:41:00,49.0,41.0,29.92,WNW,288,20.0,30.0,74,0.00,,,0.00,,2013-04-07 13:41:00,
2013-04-07 06:52:00,49.0,41.0,29.93,WSW,243,14.0,33.0,74,0.00,,,0.00,,2013-04-07 13:52:00,
2013-04-07 07:01:00,49.0,41.0,29.92,WNW,302,17.0,33.0,75,0.00,,,0.00,,2013-04-07 14:01:00,
2013-04-07 07:11:00,49.0,41.0,29.92,WNW,302,17.0,33.0,75,0.00,,,0.00,,2013-04-07 14:11:00,
2013-04-07 07:32:00,50.0,41.0,29.92,WNW,286,20.0,31.0,72,0.00,,,0.00,,2013-04-07 14:32:00,
2013-04-07 07:42:00,50.0,41.0,29.92,WNW,286,20.0,31.0,72,0.00,,,0.00,,2013-04-07 14:42:00,
2013-04-07 07:53:00,50.0,40.0,29.93,WNW,297,17.0,28.0,69,0.00,,,0.00,,2013-04-07 14:53:00,
2013-04-07 08:02:00,51.0,41.0,29.94,WNW,295,18.0,25.0,68,0.00,,,0.00,,2013-04-07 15:02:00,
2013-04-07 08:12:00,51.0,40.0,29.94,West,277,13.0,20.0,67,0.00,,,0.00,,2013-04-07 15:12:00,
2013-04-07 08:21:00,51.0,40.0,29.94,West,277,13.0,20.0,67,0.00,,,0.00,,2013-04-07 15:21:00,
2013-04-07 08:33:00,51.0,40.0,29.95,WSW,242,8.0,16.0,67,0.00,,,0.00,,2013-04-07 15:33:00,
2013-04-07 08:43:00,51.0,40.0,29.95,WSW,242,8.0,16.0,67,0.00,,,0.00,,2013-04-07 15:43:00,
2013-04-07 09:02:00,53.0,41.0,29.97,WNW,298,10.0,20.0,63,0.00,,,0.00,,2013-04-07 16:02:00,
2013-04-07 09:12:00,53.0,41.0,29.97,WNW,298,10.0,20.0,63,0.00,,,0.00,,2013-04-07 16:12:00,
2013-04-07 09:23:00,53.0,40.0,29.97,WNW,282,15.0,19.0,61,0.00,,,0.00,,2013-04-07 16:23:00,
2013-04-07 09:32:00,54.0,41.0,29.97,WNW,286,11.0,20.0,61,0.00,,,0.00,,2013-04-07 16:32:00,
2013-04-07 09:42:00,54.0,41.0,29.97,WNW,286,11.0,20.0,61,0.00,,,0.00,,2013-04-07 16:42:00,
2013-04-07 09:53:00,55.0,40.0,29.96,WNW,296,12.0,22.0,57,0.00,,,0.00,,2013-04-07 16:53:00,
2013-04-07 10:02:00,55.0,39.0,29.97,West,263,18.0,29.0,55,0.00,,,0.00,,2013-04-07 17:02:00,
2013-04-07 10:12:00,55.0,39.0,29.97,West,263,18.0,29.0,55,0.00,,,0.00,,2013-04-07 17:12:00,
2013-04-07 10:32:00,54.0,37.0,29.97,West,277,19.0,31.0,52,0.00,,,0.00,,2013-04-07 17:32:00,
2013-04-07 10:42:00,54.0,37.0,29.97,West,277,19.0,31.0,52,0.00,,,0.00,,2013-04-07 17:42:00,
2013-04-07 10:53:00,55.0,36.0,29.97,WNW,283,19.0,29.0,49,0.00,,,0.00,,2013-04-07 17:53:00,
2013-04-07 11:02:00,56.0,38.0,29.98,West,279,19.0,33.0,51,0.00,,,0.00,,2013-04-07 18:02:00,
2013-04-07 11:12:00,56.0,38.0,29.98,West,279,19.0,33.0,51,0.00,,,0.00,,2013-04-07 18:12:00,
2013-04-07 11:22:00,54.0,37.0,29.97,West,271,18.0,27.0,52,0.00,,,0.00,,2013-04-07 18:22:00,
2013-04-07 11:32:00,57.0,37.0,29.97,WNW,296,13.0,29.0,47,0.00,,,0.00,,2013-04-07 18:32:00,
2013-04-07 11:42:00,57.0,37.0,29.97,WNW,296,13.0,29.0,47,0.00,,,0.00,,2013-04-07 18:42:00,
2013-04-07 11:52:00,57.0,36.0,29.98,West,273,15.0,27.0,46,0.00,,,0.00,,2013-04-07 18:52:00,
2013-04-07 12:01:00,57.0,36.0,29.98,WSW,254,16.0,29.0,45,0.00,,,0.00,,2013-04-07 19:01:00,
2013-04-07 12:11:00,57.0,36.0,29.98,WSW,254,16.0,29.0,45,0.00,,,0.00,,2013-04-07 19:11:00,
2013-04-07 12:21:00,58.0,34.0,29.97,West,274,18.0,26.0,41,0.00,,,0.00,,2013-04-07 19:21:00,
2013-04-07 12:31:00,59.0,33.0,29.96,West,264,17.0,26.0,38,0.00,,,0.00,,2013-04-07 19:31:00,
2013-04-07 12:42:00,59.0,33.0,29.96,West,264,17.0,26.0,38,0.00,,,0.00,,2013-04-07 19:42:00,
2013-04-07 12:53:00,60.0,32.0,29.94,WNW,288,15.0,25.0,35,0.00,,,0.00,,2013-04-07 19:53:00,
2013-04-07 13:02:00,61.0,32.0,29.93,West,267,15.0,26.0,34,0.00,,,0.00,,2013-04-07 20:02:00,
2013-04-07 13:12:00,61.0,32.0,29.93,West,267,15.0,26.0,34,0.00,,,0.00,,2013-04-07 20:12:00,
2013-04-07 13:22:00,62.0,32.0,29.92,WNW,284,13.0,24.0,32,0.00,,,0.00,,2013-04-07 20:22:00,
2013-04-07 13:32:00,62.0,32.0,29.92,WNW,284,13.0,24.0,32,0.00,,,0.00,,2013-04-07 20:32:00,
2013-04-07 13:42:00,62.0,32.0,29.92,WNW,284,13.0,24.0,32,0.00,,,0.00,,2013-04-07 20:42:00,
2013-04-07 13:53:00,67.0,27.0,29.91,NW,304,10.0,15.0,22,0.00,,,0.00,,2013-04-07 20:53:00,
2013-04-07 14:02:00,66.0,29.0,29.91,West,276,17.0,25.0,25,0.00,,,0.00,,2013-04-07 21:02:00,
2013-04-07 14:12:00,66.0,29.0,29.91,West,276,17.0,25.0,25,0.00,,,0.00,,2013-04-07 21:12:00,
2013-04-07 14:22:00,65.0,29.0,29.92,WSW,248,18.0,29.0,26,0.00,,,0.00,,2013-04-07 21:22:00,
2013-04-07 14:33:00,66.0,30.0,29.92,West,263,16.0,27.0,26,0.00,,,0.00,,2013-04-07 21:33:00,
2013-04-07 14:43:00,66.0,30.0,29.92,West,263,16.0,27.0,26,0.00,,,0.00,,2013-04-07 21:43:00,
2013-04-07 14:53:00,64.0,29.0,29.90,WNW,288,19.0,30.0,27,0.00,,,0.00,,2013-04-07 21:53:00,
2013-04-07 15:02:00,64.0,31.0,29.89,WSW,256,13.0,26.0,29,0.00,,,0.00,,2013-04-07 22:02:00,
2013-04-07 15:13:00,64.0,31.0,29.89,WSW,256,13.0,26.0,29,0.00,,,0.00,,2013-04-07 22:13:00,
2013-04-07 15:22:00,65.0,30.0,29.90,NW,308,17.0,24.0,27,0.00,,,0.00,,2013-04-07 22:22:00,
2013-04-07 15:32:00,64.0,30.0,29.88,West,262,22.0,33.0,28,0.00,,,0.00,,2013-04-07 22:32:00,
2013-04-07 15:42:00,64.0,30.0,29.88,West,262,22.0,33.0,28,0.00,,,0.00,,2013-04-07 22:42:00,
2013-04-07 15:53:00,63.0,29.0,29.88,WSW,258,22.0,29.0,28,0.00,,,0.00,,2013-04-07 22:53:00,
2013-04-07 16:02:00,63.0,31.0,29.87,NW,311,22.0,33.0,30,0.00,,,0.00,,2013-04-07 23:02:00,
2013-04-07 16:12:00,63.0,31.0,29.87,NW,311,22.0,33.0,30,0.00,,,0.00,,2013-04-07 23:12:00,
2013-04-07 16:22:00,63.0,32.0,29.87,NW,306,19.0,32.0,31,0.00,,,0.00,,2013-04-07 23:22:00,
2013-04-07 16:32:00,62.0,33.0,29.86,WNW,288,20.0,34.0,34,0.00,,,0.00,,2013-04-07 23:32:00,
2013-04-07 16:42:00,62.0,33.0,29.86,WNW,288,20.0,34.0,34,0.00,,,0.00,,2013-04-07 23:42:00,
2013-04-07 16:52:00,61.0,35.0,29.87,West,263,22.0,30.0,37,0.00,,,0.00,,2013-04-07 23:52:00,
2013-04-07 17:02:00,61.0,33.0,29.86,West,277,23.0,35.0,35,0.00,,,0.00,,2013-04-08 00:02:00,
2013-04-07 17:12:00,61.0,33.0,29.86,West,277,23.0,35.0,35,0.00,,,0.00,,2013-04-08 00:12:00,
2013-04-07 17:22:00,61.0,33.0,29.87,WSW,246,15.0,29.0,35,0.00,,,0.00,,2013-04-08 00:22:00,
2013-04-07 17:32:00,60.0,34.0,29.87,West,273,19.0,35.0,38,0.00,,,0.00,,2013-04-08 00:32:00,
2013-04-07 17:42:00,60.0,34.0,29.87,West,273,19.0,35.0,38,0.00,,,0.00,,2013-04-08 00:42:00,
2013-04-07 17:52:00,60.0,35.0,29.85,WSW,257,17.0,29.0,39,0.00,,,0.00,,2013-04-08 00:52:00,
2013-04-07 18:01:00,60.0,34.0,29.85,WSW,246,10.0,25.0,37,0.00,,,0.00,,2013-04-08 01:01:00,
2013-04-07 18:12:00,60.0,34.0,29.85,WSW,246,10.0,25.0,37,0.00,,,0.00,,2013-04-08 01:12:00,
2013-04-07 18:22:00,61.0,31.0,29.84,South,191,9.0,19.0,32,0.00,,,0.00,,2013-04-08 01:22:00,
2013-04-07 18:32:00,62.0,29.0,29.85,West,263,11.0,15.0,28,0.00,,,0.00,,2013-04-08 01:32:00,
2013-04-07 18:42:00,62.0,29.0,29.85,West,263,11.0,15.0,28,0.00,,,0.00,,2013-04-08 01:42:00,
2013-04-07 18:54:00,61.0,28.0,29.85,West,280,9.0,19.0,28,0.00,,,0.00,,2013-04-08 01:54:00,
2013-04-07 19:01:00,59.0,30.0,29.83,West,266,20.0,30.0,33,0.00,,,0.00,,2013-04-08 02:01:00,
2013-04-07 19:12:00,59.0,30.0,29.83,West,266,20.0,30.0,33,0.00,,,0.00,,2013-04-08 02:12:00,
2013-04-07 19:21:00,57.0,32.0,29.84,WNW,286,20.0,34.0,39,0.00,,,0.00,,2013-04-08 02:21:00,
2013-04-07 19:32:00,56.0,34.0,29.83,West,277,21.0,34.0,43,0.00,,,0.00,,2013-04-08 02:32:00,
2013-04-07 19:43:00,56.0,34.0,29.83,West,277,21.0,34.0,43,0.00,,,0.00,,2013-04-08 02:43:00,
2013-04-07 19:53:00,55.0,33.0,29.83,WNW,297,13.0,30.0,44,0.00,,,0.00,,2013-04-08 02:53:00,
2013-04-07 20:02:00,55.0,34.0,29.82,West,273,16.0,25.0,45,0.00,,,0.00,,2013-04-08 03:02:00,
2013-04-07 20:12:00,55.0,34.0,29.82,West,273,16.0,25.0,45,0.00,,,0.00,,2013-04-08 03:12:00,
2013-04-07 20:22:00,55.0,31.0,29.82,SW,232,8.0,24.0,40,0.00,,,0.00,,2013-04-08 03:22:00,
2013-04-07 20:32:00,56.0,29.0,29.81,WSW,237,12.0,22.0,35,0.00,,,0.00,,2013-04-08 03:32:00,
2013-04-07 20:43:00,56.0,29.0,29.81,WSW,237,12.0,22.0,35,0.00,,,0.00,,2013-04-08 03:43:00,
2013-04-07 21:02:00,55.0,35.0,29.83,WNW,298,16.0,28.0,46,0.00,,,0.00,,2013-04-08 04:02:00,
2013-04-07 21:12:00,55.0,35.0,29.83,WNW,298,16.0,28.0,46,0.00,,,0.00,,2013-04-08 04:12:00,
2013-04-07 21:23:00,55.0,35.0,29.82,WNW,293,18.0,26.0,47,0.00,,,0.00,,2013-04-08 04:23:00,
2013-04-07 21:32:00,54.0,35.0,29.82,West,275,11.0,15.0,48,0.00,,,0.00,,2013-04-08 04:32:00,
2013-04-07 21:43:00,54.0,35.0,29.82,West,275,11.0,15.0,48,0.00,,,0.00,,2013-04-08 04:43:00,
2013-04-07 21:52:00,55.0,36.0,29.84,West,275,18.0,28.0,48,0.00,,,0.00,,2013-04-08 04:52:00,
2013-04-07 22:02:00,55.0,37.0,29.83,WNW,290,15.0,26.0,50,0.00,,,0.00,,2013-04-08 05:02:00,
2013-04-07 22:12:00,55.0,37.0,29.83,WNW,290,15.0,26.0,50,0.00,,,0.00,,2013-04-08 05:12:00,
2013-04-07 22:21:00,55.0,37.0,29.83,WNW,290,15.0,26.0,50,0.00,,,0.00,,2013-04-08 05:21:00,
2013-04-07 22:31:00,54.0,37.0,29.83,West,279,12.0,25.0,52,0.00,,,0.00,,2013-04-08 05:31:00,
2013-04-07 22:42:00,53.0,37.0,29.83,West,279,11.0,15.0,54,0.00,,,0.00,,2013-04-08 05:42:00,
2013-04-07 22:52:00,53.0,37.0,29.83,West,279,11.0,15.0,54,0.00,,,0.00,,2013-04-08 05:52:00,
2013-04-07 23:02:00,53.0,37.0,29.82,WNW,287,14.0,20.0,54,0.00,,,0.00,,2013-04-08 06:02:00,
2013-04-07 23:12:00,54.0,38.0,29.81,West,281,15.0,21.0,55,0.00,,,0.00,,2013-04-08 06:12:00,
2013-04-07 23:21:00,54.0,38.0,29.81,West,281,15.0,21.0,55,0.00,,,0.00,,2013-04-08 06:21:00,
2013-04-07 23:32:00,53.0,39.0,29.81,NW,314,10.0,20.0,58,0.00,,,0.00,,2013-04-08 06:32:00,
2013-04-07 23:42:00,53.0,39.0,29.81,NW,314,10.0,20.0,58,0.00,,,0.00,,2013-04-08 06:42:00,
2013-04-07 23:52:00,53.0,39.0,29.81,West,277,10.0,18.0,58,0.00,,,0.00,,2013-04-08 06:52:00,